Regional Weather Roundup
Issued by NWS

Home | Current Version | Previous Version | Graphics & Text | Print | Product List | Glossary On
Versions: 1 2 3 4 5 6 7 8 9 10 11 12 13 14 15 16 17 18 19 20 21 22 23 24 25 26 27 28 29 30 31 32 33 34 35 36 37 38 39 40 41 42 43 44 45 46 47 48 49 50
000
ASUS45 KBOU 290610
RWRCO

WEATHER ROUNDUP FOR COLORADO
NATIONAL WEATHER SERVICE DENVER/BOULDER CO
1200 AM MDT THU SEP 29 2016

NOTE: "FAIR" INDICATES FEW OR NO CLOUDS BELOW 12000 FEET WITH NO
SIGNIFICANT WEATHER AND/OR OBSTRUCTIONS TO VISIBILITY.

COZ001>005-013-030-031-290700-
...NORTHWEST COLORADO...

CITY           SKY/WX    TMP DP  RH WIND       PRES   REMARKS
CRAIG          FAIR      48  38  68 CALM      30.31S
HAYDEN         FAIR      55  34  44 SE7       30.34S
MEEKER         FAIR      54  39  57 E5        30.34R
MOUNT WERNER   NOT AVBL
STEAMBOAT SPGS FAIR      60  31  32 E5        30.36S
WALDEN           N/A     54  27  35 E8        30.48S
$$

COZ006>008-011-290700-
...WEST CENTRAL VALLEYS...

CITY           SKY/WX    TMP DP  RH WIND       PRES   REMARKS
GRAND JUNCTION MOCLDY    71  37  28 N9        30.24R
MONTROSE       FAIR      62  42  47 S8        30.32R
EAGLE          FAIR      57  30  35 CALM      30.38R
RIFLE          FAIR      58  43  57 CALM      30.28R
DELTA          NOT AVBL
NUCLA          FAIR      63  37  39 CALM      30.38R
$$

COZ017>023-064>068-290700-
...SOUTHWEST COLORADO...

CITY           SKY/WX    TMP DP  RH WIND       PRES   REMARKS
DURANGO        CLOUDY    65  38  36 MISG      30.41R
CORTEZ         FAIR      60  49  66 SW8       30.36R
PAGOSA SPRINGS FAIR      52  34  50 CALM      30.48S
TELLURIDE      MOCLDY    57  33  39 SE3       30.55S
WOLF CREEK PAS CLOUDY    43  28  56 MISG      30.76S
$$

COZ009-010-012-014-032>034-037-058>063-290700-
...CENTRAL COLORADO...

CITY           SKY/WX    TMP DP  RH WIND       PRES   REMARKS
ASPEN          FAIR      59  29  31 SE7       30.43R
BUENA VISTA    FAIR      43  27  52 W8        30.53R
COPPER MTN     FAIR      46  21  36 S17G23    30.73S
BERTHOUD PASS  FAIR      37  25  60 SE21G28   30.77S
COTTONWOOD PAS FAIR      55  21  26 SE8       30.64R
GUNNISON       MOCLDY    53  31  42 N9        30.46S
KREMMLING      FAIR      52  27  37 CALM      30.44S
LEADVILLE      FAIR      45  25  45 CALM      30.61S
MONARCH PASS   FAIR      41  27  56 E8        30.84F
SALIDA         FAIR      53  31  42 SW8       30.57S
SUNLIGHT       MOCLDY    52  28  40 SW6       30.66S
WILKERSON PASS FAIR      43  27  52 S14G22    30.74S
$$

COZ069>075-290700-
...SAN LUIS VALLEY/SANGRE DE CRISTO MOUNTAINS...

CITY           SKY/WX    TMP DP  RH WIND       PRES   REMARKS
ALAMOSA        FAIR      49  24  37 S9        30.48R
LA VETA PASS   NOT AVBL
SAGUACHE       NOT AVBL
$$

COZ035-036-038>040-290700-
...NORTHERN COLORADO FRONT RANGE...

CITY           SKY/WX    TMP DP  RH WIND       PRES   REMARKS
DENVER INTL AP FAIR      57  34  41 SE12      30.37S
DMNS CITY PARK   N/A     57  40  52 W3        30.37S
AURORA         PTCLDY    55  33  43 S9        30.39R
FRONT RANGE AP NOT AVBL
ERIE MUNI ARPT FAIR      55  37  52 CALM      30.36S
BOULDER MUN AP FAIR      61  36  39 NW6       30.37S
CENTENNIAL     FAIR      57  36  45 SW5       30.40R
BROOMFIELD     FAIR      61  36  39 NW9       30.38F
FORT COLLINS   FAIR      61  37  41 N5        30.38F
LONGMONT       FAIR      61  40  46 N8        30.38S
$$

COZ041-046-047-076>085-087-088-290700-
...PIKES PEAK/PALMER DIVIDE AND SOUTHERN FOOTHILLS...

CITY           SKY/WX    TMP DP  RH WIND       PRES   REMARKS
COLO. SPRINGS  MOCLDY    60  31  33 E7        30.45S
A. F. ACADEMY  FAIR      60  31  33 SE10      30.45S
SCHRIEVER AFB  NOT AVBL
ELLICOTT       NOT AVBL
FALCON         FAIR      54  32  43 CALM      30.49F
FORT CARSON    FAIR      57  31  37 NE5       30.41S
LIMON          FAIR      48  39  71 SE5       30.42R
MONUMENT HILL  FAIR      55  32  41 S14       30.48S
TRINIDAD       FAIR      52  32  46 NW9       30.39S
$$

COZ042>045-048>051-090-091-290700-
...NORTHEAST COLORADO...

CITY           SKY/WX    TMP DP  RH WIND       PRES   REMARKS
GREELEY ARPT   FAIR      52  37  58 N3        30.37S
AKRON          FAIR      53  39  59 SE12      30.39S
BURLINGTON     FAIR      51  41  68 SE7       30.39R
WRAY           FAIR      54  37  54 SE6       30.38R
STERLING       FAIR      59  41  51 SE9G16    30.35S
HOLYOKE        FAIR      48  37  66 CALM      30.38R
FORT MORGAN    FAIR      57  38  47 SE9       30.37F
$$

COZ086-089-092>099-290700-
...SOUTHEAST COLORADO...

CITY           SKY/WX    TMP DP  RH WIND       PRES   REMARKS
PUEBLO         FAIR      59  32  36 NE8       30.33S
LA JUNTA       FAIR      61  39  44 E12       30.34R
LAMAR          FAIR      53  41  63 E3        30.34R
SPRINGFIELD      N/A     53  43  68 SE8       30.37R
$$



USA.gov is the U.S. government's official web portal to all federal, state and local government web resources and services.